FW8537 Weather Reports


Display with metric or nautical units.
time (UTC)temp
F
wind
direction
speed
MPH
gust
MPH
rain 1hr
in
rain 24hr
in
rain mn
in
humidity
%
barometer
mb
20260831214741 83 322 2.0 4.0 0.00 0.00 0.00 88 1012.4
20260831214544 83 334 0.0 4.0 0.00 0.00 0.00 88 1012.4
20260831214527 83 340 2.0 5.0 0.00 0.00 0.00 88 1012.6
20260831214504 83 334 0.0 5.0 0.00 0.00 0.00 88 1012.4
20260831213740 84 348 2.0 5.0 0.00 0.00 0.00 87 1012.6
20260831213241 84 12 2.0 5.0 0.00 0.00 0.00 87 1012.6
20260831213031 84 344 2.0 5.0 0.00 0.00 0.00 87 1012.4
20260831212739 84 331 3.0 6.0 0.00 0.00 0.00 87 1012.5
20260831212241 85 290 3.0 6.0 0.00 0.00 0.00 85 1012.5
20260831211733 85 318 3.0 7.0 0.00 0.00 0.00 86 1012.5
20260831211527 84 29 2.0 7.0 0.00 0.00 0.00 86 1012.4
20260831211232 85 9 3.0 7.0 0.00 0.00 0.00 86 1012.5
20260831210731 85 338 2.0 6.0 0.00 0.00 0.00 85 1012.5
20260831210230 85 39 2.0 6.0 0.00 0.00 0.00 85 1012.5
20260831210018 85 45 2.0 6.0 0.00 0.00 0.00 84 1012.4
20260831205729 85 30 3.0 6.0 0.00 0.00 0.00 85 1012.5
20260831205230 85 317 2.0 5.0 0.00 0.00 0.00 85 1012.5
20260831204730 85 311 1.0 5.0 0.00 0.00 0.00 87 1012.5
20260831204505 84 5 0.0 3.0 0.00 0.00 0.00 87 1012.4
20260831204230 84 331 1.0 4.0 0.00 0.00 0.00 87 1012.6
20260831203729 84 282 1.0 5.0 0.00 0.00 0.00 87 1012.6
20260831203230 84 335 1.0 5.0 0.00 0.00 0.00 87 1012.6
20260831203008 83 252 1.0 5.0 0.00 0.00 0.00 87 1012.4
20260831202729 83 305 1.0 3.0 0.00 0.00 0.00 87 1012.6
20260831202229 83 313 1.0 3.0 0.00 0.00 0.00 88 1012.6
20260831201730 83 308 1.0 2.0 0.00 0.00 0.00 87 1012.6
20260831201525 83 303 0.0 3.0 0.00 0.00 0.00 87 1012.8
20260831201514 82 316 0.0 2.0 0.00 0.00 0.00 87 1012.7
20260831200729 83 252 1.0 3.0 0.00 0.00 0.00 87 1012.8
20260831200231 83 275 1.0 2.0 0.00 0.00 0.00 87 1012.8
20260831200004 82 286 0.0 2.0 0.00 0.00 0.00 87 1012.9
20260831195729 83 223 0.0 2.0 0.00 0.00 0.00 87 1013.1
20260831195230 83 240 0.0 2.0 0.00 0.00 0.00 87 1013.1
20260831194721 83 234 0.0 2.0 0.00 0.00 0.00 87 1013.1
20260831194518 83 225 0.0 2.0 0.00 0.00 0.00 87 1013.2
20260831194513 82 234 0.0 2.0 0.00 0.00 0.00 87 1013.0
20260831194019 83 223 1.0 2.0 0.00 0.00 0.00 87 1013.2
20260831193221 82 271 1.0 3.0 0.00 0.00 0.00 86 1013.2
20260831193006 82 296 0.0 3.0 0.00 0.00 0.00 86 1013.1
20260831192722 82 275 1.0 3.0 0.00 0.00 0.00 86 1013.2
20260831192554 82 281 2.0 5.0 0.00 0.00 0.00 86 1013.2
20260831192548 82 298 1.0 5.0 0.00 0.00 0.00 86 1013.2
20260831191517 81 311 1.0 5.0 0.00 0.00 0.00 85 1013.0
20260831191215 82 274 2.0 6.0 0.00 0.00 0.00 85 1013.1
20260831190715 82 317 2.0 6.0 0.00 0.00 0.00 85 1013.1
20260831190215 83 251 1.0 4.0 0.00 0.00 0.00 84 1013.1
20260831190005 83 263 1.0 3.0 0.00 0.00 0.00 84 1012.8
20260831185717 83 252 1.0 3.0 0.00 0.00 0.00 84 1012.9
20260831185214 83 226 1.0 5.0 0.00 0.00 0.00 84 1012.9
20260831184715 83 227 2.0 6.0 0.00 0.00 0.00 84 1012.9
20260831184557 82 194 1.0 6.0 0.00 0.00 0.00 84 1012.9
20260831184212 83 259 2.0 6.0 0.00 0.00 0.00 84 1013.1
20260831184012 84 257 2.0 7.0 0.00 0.00 0.00 83 1013.1
20260831183211 85 258 2.0 7.0 0.00 0.00 0.00 83 1013.1
20260831183043 84 265 1.0 7.0 0.00 0.00 0.00 83 1013.2
20260831182710 85 217 2.0 5.0 0.00 0.00 0.00 82 1013.3
20260831182209 86 287 3.0 8.0 0.00 0.00 0.00 81 1013.3
20260831182005 87 316 3.0 8.0 0.00 0.00 0.00 80 1013.3
20260831181531 87 246 3.0 8.0 0.00 0.00 0.00 79 1013.0
20260831181207 89 259 2.0 8.0 0.00 0.00 0.00 78 1013.1
20260831180707 89 86 2.0 5.0 0.00 0.00 0.00 78 1013.1
20260831180206 89 34 3.0 10.0 0.00 0.00 0.00 80 1013.1
20260831180036 88 316 1.0 10.0 0.00 0.00 0.00 80 1013.0
20260831175706 88 84 3.0 10.0 0.00 0.00 0.00 79 1013.1
20260831175202 89 103 2.0 7.0 0.00 0.00 0.00 80 1013.1
20260831175001 88 61 3.0 11.0 0.00 0.00 0.00 81 1013.1
20260831174534 88 85 2.0 11.0 0.00 0.00 0.00 80 1013.3
20260831174201 89 104 3.0 11.0 0.00 0.00 0.00 79 1013.4
20260831173702 89 74 3.0 9.0 0.00 0.00 0.00 80 1013.4
20260831173201 88 66 4.0 9.0 0.00 0.00 0.00 81 1013.4
20260831173040 88 61 4.0 9.0 0.00 0.00 0.00 81 1013.4
20260831172700 88 76 3.0 9.0 0.00 0.00 0.00 79 1013.6
20260831172458 88 106 4.0 11.0 0.00 0.00 0.00 81 1013.6
20260831171701 87 84 6.0 12.0 0.00 0.00 0.00 80 1013.6
20260831171530 87 61 6.0 17.0 0.00 0.00 0.00 80 1013.4
20260831171256 88 98 4.0 18.0 0.00 0.00 0.00 82 1013.6
20260831171239 88 50 4.0 18.0 0.00 0.00 0.00 82 1013.6
20260831170201 87 46 4.0 9.0 0.00 0.00 0.00 79 1013.6
20260831170031 87 77 5.0 8.0 0.00 0.01 0.00 81 1013.4
20260831165701 87 65 3.0 8.0 0.00 0.00 0.00 81 1013.6
20260831165202 87 54 4.0 11.0 0.00 0.00 0.00 82 1013.6
20260831164701 87 107 5.0 11.0 0.00 0.00 0.00 82 1013.6
20260831164531 87 92 4.0 11.0 0.00 0.01 0.00 82 1013.5
20260831164202 87 105 5.0 10.0 0.00 0.00 0.00 82 1013.6
20260831163702 87 42 5.0 10.0 0.00 0.00 0.00 82 1013.6
20260831163201 87 84 5.0 10.0 0.00 0.00 0.00 82 1013.6
20260831163033 86 123 5.0 10.0 0.00 0.01 0.00 82 1013.6
20260831162701 87 85 3.0 9.0 0.00 0.00 0.00 81 1013.8
20260831162202 87 46 4.0 9.0 0.00 0.00 0.00 83 1013.8
20260831161957 87 72 5.0 9.0 0.00 0.00 0.00 83 1013.8
20260831161533 86 94 5.0 9.0 0.00 0.01 0.00 83 1014.0
20260831161201 86 107 4.0 9.0 0.00 0.00 0.00 83 1014.1
20260831160702 87 92 5.0 11.0 0.00 0.01 0.00 83 1014.1
20260831160201 86 94 5.0 11.0 0.00 0.01 0.00 82 1014.1
20260831160039 86 84 7.0 11.0 0.00 0.11 0.00 82 1014.0
20260831155700 87 67 4.0 8.0 0.00 0.01 0.00 83 1014.1
20260831155201 87 72 5.0 11.0 0.00 0.01 0.00 82 1014.1
20260831154701 87 68 5.0 11.0 0.00 0.01 0.00 81 1014.1
20260831154600 86 83 6.0 11.0 0.00 0.11 0.00 81 1014.0
20260831154202 87 111 3.0 10.0 0.00 0.01 0.00 81 1014.1
20260831153702 87 65 2.0 3.0 0.00 0.02 0.00 81 1014.1
20260831153455 87 93 3.0 7.0 0.00 0.05 0.00 81 1014.1
20260831153032 87 36 2.0 7.0 0.00 0.11 0.00 80 1014.0
20260831152651 88 104 4.0 9.0 0.00 0.06 0.00 79 1014.1
20260831152148 88 130 4.0 9.0 0.00 0.11 0.00 78 1014.1
20260831151649 88 81 2.0 7.0 0.00 0.11 0.00 79 1014.1
20260831151508 87 81 2.0 5.0 0.00 0.11 0.00 80 1014.0
20260831151149 87 83 3.0 8.0 0.00 0.11 0.00 82 1014.1
20260831150650 87 95 4.0 9.0 0.00 0.11 0.00 82 1014.1
20260831150150 87 140 3.0 9.0 0.00 0.11 0.00 81 1014.1
20260831150009 86 63 3.0 9.0 0.00 0.11 0.00 81 1014.0
20260831145648 87 107 3.0 7.0 0.00 0.11 0.00 82 1014.1
20260831145154 87 109 2.0 7.0 0.00 0.11 0.00 82 1014.1
20260831144647 87 81 3.0 8.0 0.00 0.11 0.00 82 1014.1
20260831144503 86 80 1.0 8.0 0.00 0.11 0.00 83 1014.0
20260831144146 87 21 3.0 8.0 0.00 0.11 0.00 83 1014.1
20260831143931 87 21 2.0 7.0 0.00 0.11 0.00 83 1014.1
20260831143146 87 35 1.0 5.0 0.00 0.11 0.00 85 1014.1
20260831143009 86 28 0.0 5.0 0.00 0.11 0.00 85 1014.0
20260831142644 86 65 2.0 5.0 0.00 0.11 0.00 84 1014.1
20260831142430 86 91 2.0 6.0 0.00 0.11 0.00 85 1014.1
20260831141934 85 155 1.0 6.0 0.00 0.11 0.00 85 1014.1
20260831141504 85 102 1.0 5.0 0.00 0.11 0.00 85 1013.9
20260831141139 85 319 1.0 3.0 0.00 0.11 0.00 87 1014.0
20260831140636 85 132 1.0 3.0 0.00 0.11 0.00 88 1014.0
20260831140137 84 339 1.0 3.0 0.00 0.11 0.00 87 1013.7
20260831140032 83 339 0.0 3.0 0.00 0.11 0.00 88 1013.6
20260831135637 84 329 1.0 3.0 0.00 0.11 0.00 87 1013.7
20260831135136 84 323 1.0 3.0 0.00 0.11 0.00 88 1013.7
20260831134634 83 0 1.0 4.0 0.00 0.11 0.00 88 1013.6
20260831134523 83 360 0.0 4.0 0.00 0.11 0.00 88 1013.5
20260831134135 83 341 1.0 4.0 0.00 0.11 0.00 88 1013.6
20260831133635 83 30 1.0 4.0 0.00 0.11 0.00 88 1013.6
20260831133135 83 346 1.0 4.0 0.00 0.11 0.00 88 1013.6
20260831133007 82 334 0.0 3.0 0.00 0.11 0.00 89 1013.4
20260831132634 83 19 1.0 3.0 0.00 0.11 0.00 88 1013.6
20260831132130 82 336 1.0 3.0 0.00 0.11 0.00 89 1013.6
20260831131630 82 323 1.0 3.0 0.00 0.11 0.00 89 1013.6
20260831131504 82 348 1.0 3.0 0.00 0.11 0.00 89 1013.4
20260831131131 82 344 0.0 3.0 0.00 0.11 0.00 90 1013.6
20260831130631 82 28 0.0 2.0 0.00 0.11 0.00 90 1013.6
20260831130130 81 338 0.0 2.0 0.00 0.11 0.00 90 1013.6
20260831130039 81 338 0.0 2.0 0.00 0.11 0.00 90 1013.4
20260831125630 81 40 0.0 2.0 0.00 0.11 0.00 91 1013.6
20260831125131 80 306 0.0 2.0 0.00 0.11 0.00 91 1013.6
20260831124631 80 330 1.0 2.0 0.00 0.11 0.00 92 1013.4
20260831124544 79 330 0.0 2.0 0.00 0.11 0.00 92 1013.3
20260831124132 80 327 0.0 3.0 0.00 0.11 0.00 92 1013.4
20260831123629 79 15 0.0 3.0 0.00 0.11 0.00 92 1013.4
20260831123421 79 345 0.0 1.0 0.00 0.11 0.00 92 1013.1
20260831123004 79 345 0.0 1.0 0.00 0.11 0.00 92 1013.0
20260831122630 79 344 0.0 1.0 0.00 0.11 0.00 92 1013.1
20260831122130 79 344 0.0 1.0 0.00 0.11 0.00 92 1013.1
20260831121629 78 344 0.0 1.0 0.00 0.11 0.00 93 1013.0
20260831121554 78 344 0.0 1.0 0.00 0.11 0.00 93 1012.9
20260831121129 78 344 0.0 1.0 0.00 0.11 0.00 93 1013.0
20260831120630 78 344 0.0 2.0 0.00 0.11 0.00 93 1013.0
20260831120131 78 344 0.0 2.0 0.00 0.11 0.00 93 1012.7
20260831120037 77 344 0.0 2.0 0.00 0.11 0.00 93 1012.6
20260831115630 77 348 0.0 1.0 0.00 0.11 0.00 93 1012.7
20260831115129 77 348 0.0 1.0 0.00 0.11 0.00 93 1012.7
20260831114629 77 348 0.0 1.0 0.00 0.11 0.00 93 1012.5
20260831114514 77 348 0.0 1.0 0.00 0.11 0.00 93 1012.4
20260831114218 77 348 0.0 1.0 0.00 0.11 0.00 93 1012.5
20260831114201 77 348 0.0 1.0 0.00 0.11 0.00 93 1012.5
20260831113129 77 347 0.0 1.0 0.00 0.11 0.00 93 1012.5
20260831113005 76 347 0.0 1.0 0.00 0.11 0.00 93 1012.4
20260831112630 77 348 0.0 1.0 0.00 0.11 0.00 93 1012.5
20260831112130 76 348 0.0 1.0 0.00 0.11 0.00 93 1012.5
20260831111630 76 348 0.0 2.0 0.00 0.11 0.00 93 1012.2
20260831111545 76 348 0.0 2.0 0.00 0.11 0.00 93 1012.1
20260831111413 76 347 0.0 2.0 0.00 0.11 0.00 93 1012.2
20260831110621 76 355 0.0 2.0 0.00 0.11 0.00 93 1012.2
20260831110405 76 9 0.0 0.0 0.00 0.11 0.00 93 1012.1
20260831110033 76 9 0.0 0.0 0.00 0.11 0.00 93 1012.0
20260831105621 76 9 0.0 0.0 0.00 0.11 0.00 93 1012.1
20260831105118 76 9 0.0 1.0 0.00 0.11 0.00 93 1012.1
20260831104904 76 9 0.0 1.0 0.00 0.11 0.00 93 1012.0
20260831104531 75 9 0.0 1.0 0.00 0.11 0.00 93 1011.9
20260831104115 76 9 0.0 1.0 0.00 0.11 0.00 93 1012.0
20260831103613 76 9 0.0 0.0 0.00 0.11 0.00 93 1012.0
20260831103110 76 9 0.0 0.0 0.00 0.11 0.00 93 1012.0
20260831103029 75 9 0.0 0.0 0.00 0.11 0.00 93 1011.9
20260831102609 76 9 0.0 0.0 0.00 0.11 0.00 93 1012.0
20260831102107 76 9 0.0 1.0 0.00 0.11 0.00 92 1012.0
20260831101849 76 9 0.0 1.0 0.00 0.11 0.00 92 1011.8
20260831101510 76 9 0.0 1.0 0.00 0.11 0.00 92 1011.7
20260831101102 76 9 0.0 1.0 0.00 0.11 0.00 92 1011.8
20260831100603 76 9 0.0 1.0 0.00 0.11 0.00 92 1011.8
20260831100103 76 9 0.0 1.0 0.00 0.11 0.00 92 1011.7
20260831100004 76 9 0.0 1.0 0.00 0.11 0.00 92 1011.6
20260831095602 76 10 0.0 1.0 0.00 0.11 0.00 92 1011.7
20260831095102 76 10 0.0 0.0 0.00 0.11 0.00 92 1011.7
20260831094602 76 10 0.0 1.0 0.00 0.11 0.00 92 1011.7
20260831094550 76 10 0.0 1.0 0.00 0.11 0.00 92 1011.6
20260831094100 76 10 1.0 2.0 0.00 0.11 0.00 92 1011.7
20260831093602 76 338 0.0 2.0 0.00 0.11 0.00 92 1011.7
20260831093101 76 343 0.0 1.0 0.00 0.11 0.00 92 1011.6
20260831093043 76 343 0.0 1.0 0.00 0.11 0.00 92 1011.5
20260831092852 76 343 0.0 0.0 0.00 0.11 0.00 92 1011.6
20260831092100 77 343 0.0 0.0 0.00 0.11 0.00 92 1011.6
20260831091848 76 343 0.0 0.0 0.00 0.11 0.00 92 1012.0
20260831091520 76 343 0.0 0.0 0.00 0.11 0.00 92 1011.9
20260831091102 77 343 0.0 0.0 0.00 0.11 0.00 92 1012.0
20260831090849 77 343 0.0 0.0 0.00 0.11 0.00 92 1012.0
20260831090054 76 343 0.0 0.0 0.00 0.11 0.00 92 1012.0
20260831085858 77 343 0.0 0.0 0.00 0.11 0.00 92 1012.1
20260831085102 77 343 0.0 0.0 0.00 0.11 0.00 92 1012.1
20260831084600 77 343 0.0 0.0 0.00 0.11 0.00 92 1012.1
20260831084531 76 343 0.0 0.0 0.00 0.11 0.00 92 1012.0
20260831084100 77 343 0.0 0.0 0.00 0.11 0.00 92 1012.1
20260831083602 77 343 0.0 1.0 0.00 0.11 0.00 92 1012.1
20260831083146 77 343 0.0 1.0 0.00 0.11 0.00 92 1012.2
20260831083132 77 343 0.0 1.0 0.00 0.11 0.00 92 1012.2
20260831083114 76 343 0.0 1.0 0.00 0.11 0.00 92 1012.1
20260831082101 77 343 0.0 0.0 0.00 0.11 0.00 91 1012.2
20260831081602 77 343 0.0 0.0 0.00 0.11 0.00 91 1012.0
20260831081509 76 343 0.0 0.0 0.00 0.11 0.00 91 1011.9
20260831081101 77 343 0.0 0.0 0.00 0.11 0.00 91 1012.0
20260831080603 77 343 0.0 0.0 0.00 0.11 0.00 91 1012.0
20260831080005 76 343 0.0 0.0 0.00 0.11 0.00 91 1012.1
20260831075604 77 343 0.0 0.0 0.00 0.11 0.00 91 1012.2
20260831075102 77 343 0.0 0.0 0.00 0.11 0.00 91 1012.2
20260831074603 77 343 0.0 1.0 0.00 0.11 0.00 91 1012.2
20260831074503 76 343 0.0 1.0 0.00 0.11 0.00 91 1012.1
20260831074103 77 343 0.0 1.0 0.00 0.11 0.00 91 1012.2
20260831073604 77 343 0.0 2.0 0.00 0.11 0.00 91 1012.2
20260831073103 76 343 0.0 2.0 0.00 0.11 0.00 91 1012.4
20260831072600 77 105 0.0 0.0 0.00 0.11 0.00 90 1012.5
20260831072358 77 105 0.0 1.0 0.00 0.11 0.00 90 1012.5
20260831071600 77 105 0.0 1.0 0.00 0.11 0.00 90 1012.6
20260831071557 76 105 0.0 1.0 0.00 0.11 0.00 90 1012.4
20260831071103 77 105 0.0 0.0 0.00 0.11 0.00 90 1012.6
20260831070858 77 105 0.0 1.0 0.00 0.11 0.00 90 1012.6
20260831070352 77 105 0.0 1.0 0.00 0.11 0.00 90 1012.4
20260831070032 77 105 0.0 1.0 0.00 0.11 0.00 90 1012.3
20260831065601 77 105 0.0 1.0 0.00 0.11 0.00 90 1012.4
20260831065101 77 106 0.0 2.0 0.00 0.11 0.00 90 1012.4
20260831064602 78 106 1.0 2.0 0.00 0.11 0.00 90 1012.5
20260831064534 77 106 0.0 2.0 0.00 0.11 0.00 90 1012.4
20260831064102 78 91 1.0 2.0 0.00 0.11 0.00 90 1012.5
20260831063548 78 88 0.0 1.0 0.00 0.11 0.00 91 1012.5
20260831063333 78 78 0.0 0.0 0.00 0.11 0.00 90 1012.5
20260831063025 77 78 0.0 0.0 0.00 0.11 0.00 90 1012.3
20260831062539 78 78 0.0 0.0 0.00 0.11 0.00 90 1012.5
20260831062037 78 78 0.0 1.0 0.00 0.11 0.00 90 1012.5
20260831061536 78 78 0.0 1.0 0.00 0.11 0.00 90 1012.7
20260831061507 78 78 0.0 1.0 0.00 0.11 0.00 90 1012.6
20260831061034 78 78 0.0 2.0 0.00 0.11 0.00 90 1012.7
20260831060534 78 78 1.0 2.0 0.00 0.11 0.00 90 1012.7
20260831060034 78 85 1.0 2.0 0.00 0.11 0.00 90 1013.0
20260831060004 78 93 0.0 2.0 0.00 0.11 0.00 90 1012.9
20260831055534 78 91 2.0 5.0 0.00 0.11 0.00 90 1013.0
20260831055332 79 94 3.0 5.0 0.00 0.11 0.00 90 1013.0
20260831054530 78 122 1.0 4.0 0.00 0.11 0.00 90 1013.1
20260831054505 78 111 2.0 4.0 0.00 0.11 0.00 90 1013.0
20260831054029 78 140 0.0 2.0 0.00 0.11 0.00 91 1013.1
20260831053530 78 107 0.0 1.0 0.00 0.11 0.00 91 1013.1
20260831053030 78 107 0.0 2.0 0.00 0.11 0.00 91 1013.5
20260831053016 78 104 0.0 2.0 0.00 0.11 0.00 91 1013.3
20260831052530 78 101 1.0 5.0 0.00 0.11 0.00 91 1013.5
20260831052030 78 115 2.0 5.0 0.00 0.11 0.00 91 1013.5
20260831051530 78 82 2.0 5.0 0.00 0.11 0.00 91 1013.4
20260831051504 78 82 1.0 5.0 0.00 0.11 0.00 91 1013.3
20260831051030 78 92 1.0 5.0 0.00 0.11 0.00 92 1013.4
20260831050529 78 76 1.0 5.0 0.00 0.11 0.00 92 1013.4
20260831050052 77 101 0.0 0.0 0.00 0.11 0.00 92 1013.3
20260831050030 78 96 0.0 0.0 0.00 0.11 0.00 92 1013.5
20260831045822 77 23 0.0 0.0 0.00 0.11 0.00 91 1013.5
20260831045030 77 23 0.0 0.0 0.00 0.11 0.00 91 1013.5
20260831044535 77 23 0.0 0.0 0.00 0.11 0.00 91 1013.4
20260831044531 77 23 0.0 0.0 0.00 0.11 0.00 91 1013.5
20260831044030 77 23 0.0 0.0 0.00 0.11 0.00 91 1013.5
20260831043612 77 23 0.0 0.0 0.00 0.11 0.00 91 1013.6
20260831043556 77 23 0.0 0.0 0.00 0.11 0.00 91 1013.5
20260831042536 77 23 0.0 0.0 0.00 0.11 0.00 91 1013.6
20260831042030 77 23 0.0 0.0 0.00 0.11 0.00 91 1013.6
20260831041639 77 23 0.0 0.0 0.00 0.11 0.00 91 1013.5
20260831041032 77 23 0.0 0.0 0.00 0.11 0.00 91 1013.6
20260831040530 78 23 0.0 0.0 0.00 0.11 0.00 91 1013.6
20260831040030 78 23 0.0 0.0 0.00 0.11 0.00 91 1013.7
20260831040018 77 23 0.0 0.0 0.00 0.11 0.11 91 1013.6
20260831035527 78 23 0.0 0.0 0.00 0.11 0.11 91 1013.7
20260831035025 78 23 0.0 0.0 0.00 0.11 0.11 91 1013.7
20260831034524 78 23 0.0 0.0 0.00 0.11 0.11 91 1013.8
20260831034505 77 23 0.0 0.0 0.00 0.11 0.11 91 1013.7
20260831034021 78 23 0.0 0.0 0.00 0.11 0.11 91 1013.8
20260831033624 78 23 0.0 0.0 0.00 0.11 0.11 91 1013.8
20260831033552 78 23 0.0 0.0 0.00 0.11 0.11 91 1013.8
20260831032520 77 23 0.0 0.0 0.00 0.11 0.11 90 1013.8
20260831032018 78 23 0.0 0.0 0.00 0.11 0.11 90 1013.8
20260831031805 78 23 0.0 0.0 0.00 0.11 0.11 90 1013.6
20260831031014 78 23 0.0 0.0 0.00 0.11 0.11 90 1013.6
20260831030505 78 23 0.0 0.0 0.00 0.11 0.11 90 1013.6
20260831030018 77 23 0.0 0.0 0.00 0.11 0.11 90 1013.5
20260831030004 78 23 0.0 0.0 0.00 0.11 0.11 90 1013.6
20260831025502 78 23 0.0 0.0 0.00 0.11 0.11 90 1013.6
20260831025002 78 23 0.0 0.0 0.00 0.11 0.11 90 1013.6
20260831024747 78 23 0.0 0.0 0.00 0.11 0.11 90 1013.6
20260831024004 78 23 0.0 0.0 0.00 0.11 0.11 90 1013.6
20260831023501 78 23 0.0 0.0 0.00 0.11 0.11 90 1013.6
20260831023044 78 23 0.0 0.0 0.00 0.11 0.11 90 1013.4
20260831023002 78 23 0.0 1.0 0.00 0.11 0.11 90 1013.6
20260831022751 78 23 0.0 1.0 0.00 0.11 0.11 90 1013.6
20260831022003 78 23 0.0 1.0 0.00 0.11 0.11 89 1013.6
20260831021751 78 23 0.0 1.0 0.00 0.11 0.11 89 1013.6
20260831021251 78 23 0.0 1.0 0.00 0.11 0.11 89 1013.6
20260831020502 78 23 0.0 1.0 0.00 0.11 0.11 89 1013.6
20260831020021 78 23 0.0 1.0 0.00 0.11 0.11 89 1013.4
20260831020001 78 23 0.0 1.0 0.00 0.11 0.11 89 1013.6
20260831015500 78 23 0.0 1.0 0.00 0.11 0.11 89 1013.6
20260831015004 79 24 0.0 1.0 0.00 0.11 0.11 89 1013.6
20260831014508 78 24 0.0 2.0 0.00 0.11 0.11 89 1013.5
20260831014503 79 24 0.0 2.0 0.00 0.11 0.11 89 1013.6
20260831014248 79 24 0.0 2.0 0.00 0.11 0.11 89 1013.6
20260831013748 79 61 0.0 1.0 0.00 0.11 0.11 89 1013.6
20260831013008 78 61 0.0 1.0 0.00 0.11 0.11 89 1013.6
20260831013003 79 61 0.0 1.0 0.00 0.11 0.11 89 1013.7
20260831012503 79 61 0.0 1.0 0.00 0.11 0.11 89 1013.7
20260831012004 79 61 0.0 1.0 0.00 0.11 0.11 89 1013.7
20260831011750 79 61 0.0 1.0 0.00 0.11 0.11 88 1013.7
20260831011004 79 61 0.0 0.0 0.00 0.11 0.11 88 1013.7
20260831010504 79 64 0.0 1.0 0.00 0.11 0.11 88 1013.7
20260831010008 79 94 0.0 1.0 0.00 0.11 0.11 88 1013.6
20260831010004 79 94 0.0 1.0 0.00 0.11 0.11 88 1013.5
20260831005746 79 98 0.0 1.0 0.00 0.11 0.11 88 1013.6
20260831005001 80 98 0.0 1.0 0.00 0.11 0.11 88 1013.6
20260831004547 79 98 0.0 1.0 0.00 0.11 0.11 88 1013.4
20260831004503 80 98 0.0 1.0 0.00 0.11 0.11 88 1013.5
20260831004002 80 98 0.0 1.0 0.00 0.11 0.11 88 1013.5
20260831003501 80 98 1.0 2.0 0.00 0.11 0.11 87 1013.5
20260831003034 80 98 1.0 2.0 0.00 0.11 0.11 88 1013.4
20260831003001 80 98 1.0 2.0 0.00 0.11 0.11 88 1013.6
20260831002502 80 85 1.0 3.0 0.00 0.11 0.11 87 1013.6
20260831002001 80 97 1.0 3.0 0.00 0.11 0.11 87 1013.6
20260831001531 80 88 1.0 3.0 0.00 0.11 0.11 87 1013.3
20260831001502 80 92 1.0 2.0 0.00 0.11 0.11 87 1013.4
20260831001048 81 78 1.0 2.0 0.00 0.11 0.11 87 1013.4
20260831001033 81 96 1.0 2.0 0.00 0.11 0.11 87 1013.4
20260831000012 80 88 0.0 2.0 0.00 0.11 0.11 87 1013.0
20260831000002 81 88 1.0 2.0 0.00 0.11 0.11 87 1013.1
20260830235502 81 89 1.0 5.0 0.00 0.11 0.11 87 1013.1
20260830235005 81 95 1.0 5.0 0.00 0.11 0.11 87 1013.1
20260830234508 81 88 1.0 3.0 0.00 0.11 0.11 87 1013.0
20260830234502 81 88 1.0 3.0 0.00 0.11 0.11 87 1013.1
20260830234002 81 80 1.0 3.0 0.00 0.11 0.11 87 1013.1
20260830233502 81 75 1.0 3.0 0.00 0.11 0.11 86 1013.1
20260830233010 81 102 1.0 2.0 0.00 0.11 0.11 87 1012.6
20260830233005 82 102 1.0 2.0 0.00 0.11 0.11 87 1012.7
20260830232503 82 98 1.0 2.0 0.00 0.11 0.11 87 1012.7
20260830232002 82 86 1.0 6.0 0.00 0.11 0.11 86 1012.7
20260830231751 82 84 3.0 6.0 0.00 0.11 0.11 86 1012.6
20260830231003 82 108 3.0 6.0 0.00 0.11 0.11 86 1012.6
20260830230503 82 132 3.0 6.0 0.00 0.11 0.11 86 1012.6
20260830230009 82 92 2.0 4.0 0.00 0.13 0.11 86 1012.5
20260830230003 82 105 2.0 5.0 0.00 0.11 0.11 86 1012.6
20260830225503 82 79 2.0 5.0 0.00 0.11 0.11 85 1012.6
20260830225003 82 84 2.0 5.0 0.00 0.11 0.11 85 1012.6
20260830224509 82 87 1.0 5.0 0.00 0.13 0.11 85 1012.8
20260830224504 82 87 3.0 6.0 0.00 0.12 0.11 85 1012.9
20260830224002 83 88 3.0 6.0 0.00 0.12 0.11 85 1012.9
20260830223503 83 83 3.0 6.0 0.00 0.12 0.11 85 1012.9
20260830223007 82 76 1.0 8.0 0.00 0.13 0.11 85 1012.9
20260830223002 83 76 3.0 8.0 0.00 0.12 0.11 85 1013.0
20260830222830 83 82 4.0 8.0 0.00 0.13 0.11 85 1013.0
20260830222004 83 82 3.0 7.0 0.00 0.13 0.11 85 1013.0
20260830221512 83 107 2.0 8.0 0.00 0.13 0.11 84 1012.9
20260830221503 83 107 3.0 8.0 0.00 0.13 0.11 84 1013.0
20260830221002 84 86 3.0 8.0 0.00 0.13 0.11 84 1013.0
20260830220502 84 80 2.0 6.0 0.00 0.13 0.11 85 1013.0
20260830220008 84 96 2.0 6.0 0.00 0.14 0.11 84 1012.8
20260830220003 84 96 3.0 6.0 0.00 0.13 0.11 84 1012.9
20260830215756 84 76 3.0 8.0 0.00 0.13 0.11 84 1012.9